EW7736 Weather Reports


Display with metric or nautical units.
time (UTC)temp
F
wind
direction
speed
MPH
gust
MPH
rain 1hr
in
rain 24hr
in
rain mn
in
humidity
%
barometer
mb
20210731185914 76 264 0.0 3.0 0.00 0.00 0.00 49 1016.0
20210731184931 76 200 1.0 4.0 0.00 0.00 0.00 52 1016.0
20210731183903 75 218 1.0 4.0 0.00 0.00 0.00 52 1016.1
20210731182924 75 248 0.0 4.0 0.00 0.00 0.00 50 1016.1
20210731181900 75 208 0.0 0.0 0.00 0.00 0.00 51 1016.0
20210731180849 74 280 1.0 7.0 0.00 0.00 0.00 52 1016.0
20210731175852 74 293 2.0 7.0 0.00 0.00 0.00 50 1016.2
20210731174837 74 260 1.0 4.0 0.00 0.00 0.00 49 1016.3
20210731173825 75 333 0.0 4.0 0.00 0.00 0.00 51 1016.4
20210731172825 74 192 0.0 3.0 0.00 0.00 0.00 50 1016.4
20210731171836 73 199 0.0 4.0 0.00 0.00 0.00 54 1016.4
20210731170821 73 159 0.0 4.0 0.00 0.00 0.00 52 1016.5
20210731165803 74 260 0.0 2.0 0.00 0.00 0.00 52 1016.5
20210731164803 73 186 0.0 1.0 0.00 0.00 0.00 54 1016.6
20210731163805 72 259 0.0 3.0 0.00 0.00 0.00 54 1016.6
20210731162804 72 287 1.0 3.0 0.00 0.00 0.00 58 1016.6
20210731161744 72 257 0.0 3.0 0.00 0.00 0.00 62 1016.8
20210731160745 71 240 0.0 1.0 0.00 0.00 0.00 58 1016.8
20210731155733 71 266 0.0 1.0 0.00 0.00 0.00 59 1016.8
20210731154706 70 311 0.0 3.0 0.00 0.00 0.00 59 1016.9
20210731153731 70 189 0.0 1.0 0.00 0.00 0.00 61 1017.0
20210731152705 70 287 0.0 4.0 0.00 0.00 0.00 62 1017.1
20210731151718 69 273 0.0 0.0 0.00 0.00 0.00 60 1017.4
20210731150708 69 212 0.0 1.0 0.00 0.00 0.00 64 1017.5
20210731145712 69 285 0.0 2.0 0.00 0.00 0.00 64 1017.3
20210731144735 68 269 0.0 0.0 0.00 0.00 0.00 64 1017.4
20210731143713 68 199 0.0 0.0 0.00 0.00 0.00 66 1017.5
20210731142724 70 205 0.0 3.0 0.00 0.00 0.00 63 1017.6
20210731141719 70 153 0.0 0.0 0.00 0.00 0.00 65 1017.4
20210731140651 69 206 0.0 0.0 0.00 0.00 0.00 67 1017.5
20210731135655 68 90 0.0 2.0 0.00 0.00 0.00 67 1017.3
20210731134711 69 269 0.0 0.0 0.00 0.00 0.00 66 1017.6
20210731133701 68 125 0.0 0.0 0.00 0.00 0.00 72 1017.7
20210731132644 68 117 0.0 0.0 0.00 0.00 0.00 71 1017.8
20210731131703 66 115 0.0 0.0 0.00 0.00 0.00 75 1017.9
20210731130656 64 195 0.0 0.0 0.00 0.00 0.00 77 1018.0
20210731125703 63 302 0.0 0.0 0.00 0.00 0.00 80 1018.1
20210731124634 63 305 0.0 0.0 0.00 0.00 0.00 81 1017.9
20210731123634 61 281 0.0 0.0 0.00 0.00 0.00 82 1017.9
20210731122617 61 281 0.0 0.0 0.00 0.00 0.00 83 1017.7
20210731121544 60 231 0.0 0.0 0.00 0.00 0.00 87 1017.5
20210731120532 59 231 0.0 0.0 0.00 0.00 0.00 90 1017.5
20210731115549 58 231 0.0 0.0 0.00 0.00 0.00 90 1017.5
20210731114519 58 231 0.0 0.0 0.00 0.00 0.00 90 1017.3
20210731113449 58 231 0.0 0.0 0.00 0.00 0.00 91 1017.3
20210731112511 57 231 0.0 0.0 0.00 0.00 0.00 91 1017.4
20210731111515 57 231 0.0 0.0 0.00 0.00 0.00 91 1017.3
20210731110443 57 231 0.0 0.0 0.00 0.00 0.00 91 1017.3
20210731105439 57 231 0.0 0.0 0.00 0.00 0.00 90 1017.3
20210731104433 57 231 0.0 0.0 0.00 0.00 0.00 90 1017.2
20210731103422 57 231 0.0 0.0 0.00 0.00 0.00 90 1017.4
20210731102446 57 231 0.0 0.0 0.00 0.00 0.00 89 1017.3
20210731101445 57 231 0.0 0.0 0.00 0.00 0.00 88 1017.4
20210731100430 57 231 0.0 0.0 0.00 0.00 0.00 88 1017.5
20210731095404 58 231 0.0 0.0 0.00 0.00 0.00 87 1017.4
20210731094404 58 231 0.0 0.0 0.00 0.00 0.00 87 1017.3
20210731093415 58 232 0.0 0.0 0.00 0.00 0.00 87 1017.3
20210731092432 58 231 0.0 0.0 0.00 0.00 0.00 87 1017.3
20210731091401 58 231 0.0 0.0 0.00 0.00 0.00 86 1017.4
20210731090421 58 231 0.0 0.0 0.00 0.00 0.00 86 1017.4
20210731085442 58 231 0.0 0.0 0.00 0.00 0.00 86 1017.4
20210731084422 58 231 0.0 0.0 0.00 0.00 0.00 86 1017.4
20210731083444 59 231 0.0 0.0 0.00 0.00 0.00 86 1017.3
20210731082428 59 231 0.0 0.0 0.00 0.00 0.00 85 1017.2
20210731081359 59 231 0.0 0.0 0.00 0.00 0.00 84 1017.2
20210731080348 59 231 0.0 0.0 0.00 0.00 0.00 85 1017.2
20210731075341 59 232 0.0 0.0 0.00 0.00 0.00 85 1017.3
20210731074323 58 231 0.0 0.0 0.00 0.00 0.00 86 1017.3
20210731073324 58 231 0.0 0.0 0.00 0.00 0.00 86 1017.4
20210731072335 58 231 0.0 0.0 0.00 0.00 0.00 85 1017.4
20210731071356 58 231 0.0 0.0 0.00 0.00 0.00 84 1017.4
20210731070330 58 231 0.0 0.0 0.00 0.00 0.00 84 1017.4
20210731065352 58 231 0.0 0.0 0.00 0.00 0.00 84 1017.5
20210731064340 59 231 0.0 0.0 0.00 0.00 0.00 83 1017.5
20210731063313 59 231 0.0 0.0 0.00 0.00 0.00 83 1017.5
20210731062323 59 231 0.0 0.0 0.00 0.00 0.00 84 1017.5
20210731061254 59 231 0.0 0.0 0.00 0.00 0.00 83 1017.7
20210731060232 59 231 0.0 0.0 0.00 0.00 0.00 82 1017.8
20210731055241 59 231 0.0 0.0 0.00 0.00 0.00 82 1017.9
20210731054222 59 231 0.0 0.0 0.00 0.00 0.00 82 1018.0
20210731053206 59 231 0.0 0.0 0.00 0.00 0.00 81 1017.9
20210731052218 59 231 0.0 0.0 0.00 0.00 0.00 80 1018.0
20210731051155 59 231 0.0 0.0 0.00 0.00 0.00 79 1018.1
20210731050153 60 231 0.0 0.0 0.00 0.00 0.00 79 1018.0
20210731045144 60 231 0.0 0.0 0.00 0.00 0.00 77 1018.0
20210731044131 61 231 0.0 0.0 0.00 0.00 0.00 76 1018.0
20210731043111 62 231 0.0 0.0 0.00 0.00 0.00 75 1017.8
20210731042104 62 231 0.0 0.0 0.00 0.00 0.00 74 1017.7
20210731041046 63 231 0.0 0.0 0.00 0.00 0.00 73 1017.7
20210731040029 63 231 0.0 0.0 0.00 0.00 0.00 72 1017.7
20210731035029 64 330 0.0 0.0 0.00 0.00 0.00 72 1017.6
20210731034033 64 285 0.0 0.0 0.00 0.00 0.00 72 1017.7
20210731033046 64 298 0.0 1.0 0.00 0.00 0.00 71 1017.6
20210731032013 65 94 0.0 0.0 0.00 0.00 0.00 72 1017.5
20210731031018 65 273 0.0 0.0 0.00 0.00 0.00 73 1017.3
20210731025946 65 117 0.0 0.0 0.00 0.00 0.00 72 1017.2
20210731024937 65 221 0.0 0.0 0.00 0.00 0.00 72 1017.2
20210731023952 65 73 0.0 0.0 0.00 0.00 0.00 71 1017.1
20210731022934 66 73 0.0 0.0 0.00 0.00 0.00 70 1017.2
20210731021908 67 283 0.0 0.0 0.00 0.00 0.00 69 1017.2
20210731020858 67 283 0.0 2.0 0.00 0.00 0.00 68 1017.0
20210731015836 67 284 0.0 2.0 0.00 0.00 0.00 68 1017.0
20210731014825 68 293 0.0 0.0 0.00 0.00 0.00 67 1016.8
20210731013816 68 287 0.0 0.0 0.00 0.00 0.00 66 1016.7
20210731012757 69 276 0.0 3.0 0.00 0.00 0.00 65 1016.6
20210731011735 69 278 0.0 0.0 0.00 0.00 0.00 66 1016.5
20210731010723 69 269 0.0 0.0 0.00 0.00 0.00 65 1016.5
20210731005734 70 286 0.0 0.0 0.00 0.00 0.00 64 1016.4
20210731004713 70 302 0.0 3.0 0.00 0.00 0.00 64 1016.4
20210731003708 71 283 0.0 3.0 0.00 0.00 0.00 63 1016.5
20210731002712 71 77 0.0 4.0 0.00 0.00 0.00 62 1016.3
20210731001643 72 278 0.0 3.0 0.00 0.00 0.00 61 1016.3
20210731000633 73 283 1.0 3.0 0.00 0.00 0.00 60 1016.3
20210730235628 73 297 0.0 2.0 0.00 0.00 0.00 61 1016.1
20210730234614 73 282 0.0 4.0 0.00 0.00 0.00 60 1016.1
20210730233544 74 280 0.0 3.0 0.00 0.00 0.00 58 1016.2
20210730232602 75 288 1.0 8.0 0.00 0.00 0.00 56 1016.1
20210730231550 75 288 2.0 8.0 0.00 0.00 0.00 56 1016.0
20210730230521 76 297 1.0 4.0 0.00 0.00 0.00 55 1016.0
20210730225453 76 296 1.0 5.0 0.00 0.00 0.00 55 1015.8
20210730224422 76 277 1.0 5.0 0.00 0.00 0.00 54 1015.8
20210730223411 77 287 1.0 5.0 0.00 0.00 0.00 55 1015.7
20210730222337 77 276 1.0 8.0 0.00 0.00 0.00 55 1015.6
20210730221315 77 286 2.0 8.0 0.00 0.00 0.00 54 1015.6
20210730220301 77 283 2.0 6.0 0.00 0.00 0.00 53 1015.7
20210730215256 77 271 0.0 6.0 0.00 0.00 0.00 54 1015.7
20210730214303 78 276 2.0 7.0 0.00 0.00 0.00 51 1015.6
20210730213301 78 293 2.0 7.0 0.00 0.00 0.00 50 1015.6
20210730212242 78 292 2.0 8.0 0.00 0.00 0.00 51 1015.6
20210730211215 78 287 3.0 8.0 0.00 0.00 0.00 53 1015.6
20210730210222 78 286 1.0 8.0 0.00 0.00 0.00 49 1015.5
20210730205243 78 285 2.0 8.0 0.00 0.00 0.00 51 1015.4
20210730204211 79 296 1.0 6.0 0.00 0.00 0.00 51 1015.5
20210730203216 78 238 1.0 7.0 0.00 0.00 0.00 52 1015.4
20210730202222 78 300 3.0 7.0 0.00 0.00 0.00 51 1015.4
20210730201216 79 259 2.0 6.0 0.00 0.00 0.00 52 1015.3
20210730200217 78 276 2.0 11.0 0.00 0.00 0.00 54 1015.4
20210730195146 78 283 3.0 11.0 0.00 0.00 0.00 53 1015.4
20210730194146 78 296 2.0 8.0 0.00 0.00 0.00 53 1015.3
20210730193124 79 288 2.0 9.0 0.00 0.00 0.00 51 1015.2
20210730192111 78 300 3.0 9.0 0.00 0.00 0.00 52 1015.2
20210730191112 78 284 2.0 6.0 0.00 0.00 0.00 53 1015.2